Time,TemperatureF,DewpointF,PressureIn,WindDirection,WindDirectionDegrees,WindSpeedMPH,WindSpeedGustMPH,Humidity,HourlyPrecipIn,Conditions,Clouds,dailyrainin,SoftwareType,DateUTC
2013-05-01 00:00:00,53.2,50.0,30.27,SE,135,0.0,0.0,89,0.00,,BKN,0.00,WeatherDisplay:10.37,2013-05-01 04:00:00,
2013-05-01 00:01:00,53.2,50.0,30.27,SE,135,0.0,0.0,89,0.00,,BKN,0.00,WeatherDisplay:10.37,2013-05-01 04:01:00,
2013-05-01 00:06:00,53.1,49.9,30.27,SE,135,0.0,0.0,89,0.00,,BKN,0.00,WeatherDisplay:10.37,2013-05-01 04:06:00,
2013-05-01 00:11:00,52.7,49.2,30.27,SE,135,0.0,0.0,88,0.00,,BKN,0.00,WeatherDisplay:10.37,2013-05-01 04:11:00,
2013-05-01 00:16:00,52.7,49.2,30.27,SE,135,0.0,0.0,88,0.00,,BKN,0.00,WeatherDisplay:10.37,2013-05-01 04:16:00,
2013-05-01 00:21:00,52.5,49.4,30.27,SE,135,0.0,0.0,89,0.00,,BKN,0.00,WeatherDisplay:10.37,2013-05-01 04:21:00,
2013-05-01 00:26:00,52.3,49.2,30.28,SE,135,0.0,0.0,89,0.00,,BKN,0.00,WeatherDisplay:10.37,2013-05-01 04:26:00,
2013-05-01 00:31:00,52.2,49.1,30.28,SE,135,0.0,0.0,89,0.00,,BKN,0.00,WeatherDisplay:10.37,2013-05-01 04:31:00,
2013-05-01 00:36:00,52.0,48.9,30.29,SE,135,0.0,0.0,89,0.00,,BKN,0.00,WeatherDisplay:10.37,2013-05-01 04:36:00,
2013-05-01 00:41:00,51.8,49.0,30.29,SE,135,0.0,0.0,90,0.00,,BKN,0.00,WeatherDisplay:10.37,2013-05-01 04:41:00,
2013-05-01 00:46:00,51.6,48.8,30.29,SE,135,0.0,0.0,90,0.00,,BKN,0.00,WeatherDisplay:10.37,2013-05-01 04:46:00,
2013-05-01 00:51:00,51.6,48.8,30.29,SE,135,0.0,0.0,90,0.00,,BKN,0.00,WeatherDisplay:10.37,2013-05-01 04:51:00,
2013-05-01 00:56:00,51.4,48.9,30.29,SE,135,0.7,1.7,91,0.00,,BKN,0.00,WeatherDisplay:10.37,2013-05-01 04:56:00,
2013-05-01 01:01:00,51.4,49.2,30.30,SE,135,0.2,1.1,92,0.00,,BKN,0.00,WeatherDisplay:10.37,2013-05-01 05:01:00,
2013-05-01 01:06:00,51.4,49.2,30.30,SE,135,0.0,0.0,92,0.00,,BKN,0.00,WeatherDisplay:10.37,2013-05-01 05:06:00,
2013-05-01 01:11:00,51.4,49.2,30.30,SE,135,0.0,0.0,92,0.00,,BKN,0.00,WeatherDisplay:10.37,2013-05-01 05:11:00,
2013-05-01 01:16:00,51.8,49.3,30.30,SE,135,0.0,0.0,91,0.00,,BKN,0.00,WeatherDisplay:10.37,2013-05-01 05:16:00,
2013-05-01 01:21:00,51.8,49.3,30.30,SE,135,0.0,0.0,91,0.00,,BKN,0.00,WeatherDisplay:10.37,2013-05-01 05:21:00,
2013-05-01 01:26:00,51.8,49.3,30.31,SE,135,0.0,0.0,91,0.00,,BKN,0.00,WeatherDisplay:10.37,2013-05-01 05:26:00,
2013-05-01 01:31:00,51.8,49.3,30.31,SE,135,0.0,0.0,91,0.00,,BKN,0.00,WeatherDisplay:10.37,2013-05-01 05:31:00,
2013-05-01 01:36:00,51.8,49.3,30.31,SE,135,0.0,0.0,91,0.00,,BKN,0.00,WeatherDisplay:10.37,2013-05-01 05:36:00,
2013-05-01 01:41:00,51.8,49.3,30.31,SE,135,1.9,2.3,91,0.00,,BKN,0.00,WeatherDisplay:10.37,2013-05-01 05:41:00,
2013-05-01 01:46:00,52.0,49.2,30.31,SE,135,1.7,2.3,90,0.00,,BKN,0.00,WeatherDisplay:10.37,2013-05-01 05:46:00,
2013-05-01 01:51:00,52.2,49.4,30.31,SE,135,1.8,2.3,90,0.00,,BKN,0.00,WeatherDisplay:10.37,2013-05-01 05:51:00,
2013-05-01 01:56:00,52.2,49.4,30.31,SE,135,1.4,1.4,90,0.00,,BKN,0.00,WeatherDisplay:10.37,2013-05-01 05:56:00,
2013-05-01 02:01:00,52.2,49.4,30.31,SE,135,0.0,0.0,90,0.00,,BKN,0.00,WeatherDisplay:10.37,2013-05-01 06:01:00,
2013-05-01 02:06:00,52.2,49.4,30.31,SE,135,0.0,0.0,90,0.00,,BKN,0.00,WeatherDisplay:10.37,2013-05-01 06:06:00,
2013-05-01 02:11:00,52.2,49.4,30.31,SE,135,0.0,0.0,90,0.00,,BKN,0.00,WeatherDisplay:10.37,2013-05-01 06:11:00,
2013-05-01 02:16:00,52.0,49.2,30.31,SE,135,0.0,0.0,90,0.00,,BKN,0.00,WeatherDisplay:10.37,2013-05-01 06:16:00,
2013-05-01 02:21:00,51.6,48.8,30.31,SE,135,0.0,0.0,90,0.00,,BKN,0.00,WeatherDisplay:10.37,2013-05-01 06:21:00,
2013-05-01 02:27:00,51.6,48.8,30.32,SE,135,0.0,0.0,90,0.00,,BKN,0.00,WeatherDisplay:10.37,2013-05-01 06:27:00,
2013-05-01 02:32:00,51.6,48.8,30.32,SE,135,0.0,0.0,90,0.00,,BKN,0.00,WeatherDisplay:10.37,2013-05-01 06:32:00,
2013-05-01 02:37:00,51.6,48.8,30.32,SE,135,0.0,0.0,90,0.00,,BKN,0.00,WeatherDisplay:10.37,2013-05-01 06:37:00,
2013-05-01 02:42:00,51.6,48.5,30.32,SE,135,0.0,0.0,89,0.00,,BKN,0.00,WeatherDisplay:10.37,2013-05-01 06:42:00,
2013-05-01 02:47:00,51.6,48.2,30.32,SE,135,0.0,0.0,88,0.00,,BKN,0.00,WeatherDisplay:10.37,2013-05-01 06:47:00,
2013-05-01 02:52:00,51.8,48.1,30.32,SE,135,0.0,0.0,87,0.00,,BKN,0.00,WeatherDisplay:10.37,2013-05-01 06:52:00,
2013-05-01 02:57:00,52.0,48.3,30.32,SE,135,0.0,0.0,87,0.00,,BKN,0.00,WeatherDisplay:10.37,2013-05-01 06:57:00,
2013-05-01 03:02:00,52.0,48.3,30.33,SE,135,0.0,0.0,87,0.00,,BKN,0.00,WeatherDisplay:10.37,2013-05-01 07:02:00,
2013-05-01 03:07:00,51.8,48.1,30.33,SE,135,0.0,0.0,87,0.00,,BKN,0.00,WeatherDisplay:10.37,2013-05-01 07:07:00,
2013-05-01 03:12:00,51.6,47.9,30.33,SE,135,0.0,0.0,87,0.00,,BKN,0.00,WeatherDisplay:10.37,2013-05-01 07:12:00,
2013-05-01 03:17:00,51.4,47.7,30.33,SE,135,0.0,0.0,87,0.00,,BKN,0.00,WeatherDisplay:10.37,2013-05-01 07:17:00,
2013-05-01 03:22:00,51.4,47.7,30.33,SE,135,0.0,0.0,87,0.00,,BKN,0.00,WeatherDisplay:10.37,2013-05-01 07:22:00,
2013-05-01 03:27:00,51.4,47.7,30.33,SE,135,1.1,1.1,87,0.00,,BKN,0.00,WeatherDisplay:10.37,2013-05-01 07:27:00,
2013-05-01 03:32:00,51.4,47.7,30.33,SE,135,1.2,1.2,87,0.00,,BKN,0.00,WeatherDisplay:10.37,2013-05-01 07:32:00,
2013-05-01 03:37:00,51.4,47.7,30.33,SE,135,0.0,0.0,87,0.00,,BKN,0.00,WeatherDisplay:10.37,2013-05-01 07:37:00,
2013-05-01 03:42:00,51.4,47.4,30.33,SE,135,0.0,0.0,86,0.00,,BKN,0.00,WeatherDisplay:10.37,2013-05-01 07:42:00,
2013-05-01 03:47:00,51.4,47.4,30.33,SE,135,0.0,0.0,86,0.00,,BKN,0.00,WeatherDisplay:10.37,2013-05-01 07:47:00,
2013-05-01 03:52:00,51.4,47.0,30.33,SE,135,0.0,0.0,85,0.00,,BKN,0.00,WeatherDisplay:10.37,2013-05-01 07:52:00,
2013-05-01 03:57:00,51.4,47.0,30.33,SE,135,0.0,0.0,85,0.00,,BKN,0.00,WeatherDisplay:10.37,2013-05-01 07:57:00,
2013-05-01 04:02:00,51.3,46.6,30.33,SE,135,0.0,0.0,84,0.00,,BKN,0.00,WeatherDisplay:10.37,2013-05-01 08:02:00,
2013-05-01 04:07:00,51.1,47.1,30.33,SE,135,0.0,0.0,86,0.00,,BKN,0.00,WeatherDisplay:10.37,2013-05-01 08:07:00,
2013-05-01 04:12:00,50.5,46.5,30.33,SE,135,0.0,0.0,86,0.00,,BKN,0.00,WeatherDisplay:10.37,2013-05-01 08:12:00,
2013-05-01 04:17:00,50.5,46.5,30.33,SE,135,0.0,0.0,86,0.00,,BKN,0.00,WeatherDisplay:10.37,2013-05-01 08:17:00,
2013-05-01 04:22:00,50.2,46.5,30.33,SE,135,0.0,0.0,87,0.00,,BKN,0.00,WeatherDisplay:10.37,2013-05-01 08:22:00,
2013-05-01 04:27:00,50.0,46.3,30.33,SE,135,0.0,0.0,87,0.00,,BKN,0.00,WeatherDisplay:10.37,2013-05-01 08:27:00,
2013-05-01 04:32:00,50.0,45.7,30.33,SE,135,0.0,0.0,85,0.00,,BKN,0.00,WeatherDisplay:10.37,2013-05-01 08:32:00,
2013-05-01 04:37:00,50.0,45.7,30.33,SE,135,1.1,1.1,85,0.00,,BKN,0.00,WeatherDisplay:10.37,2013-05-01 08:37:00,
2013-05-01 04:42:00,50.0,45.4,30.33,SE,135,0.0,0.0,84,0.00,,BKN,0.00,WeatherDisplay:10.37,2013-05-01 08:42:00,
2013-05-01 04:47:00,50.0,45.4,30.34,SE,135,0.0,0.0,84,0.00,,BKN,0.00,WeatherDisplay:10.37,2013-05-01 08:47:00,
2013-05-01 04:52:00,50.0,45.4,30.34,SE,135,0.0,0.0,84,0.00,,BKN,0.00,WeatherDisplay:10.37,2013-05-01 08:52:00,
2013-05-01 04:57:00,49.6,45.3,30.34,SE,135,0.0,0.0,85,0.00,,BKN,0.00,WeatherDisplay:10.37,2013-05-01 08:57:00,
2013-05-01 05:02:00,49.5,45.5,30.33,SE,135,0.0,0.0,86,0.00,,BKN,0.00,WeatherDisplay:10.37,2013-05-01 09:02:00,
2013-05-01 05:07:00,49.3,45.3,30.33,SE,135,0.0,0.0,86,0.00,,BKN,0.00,WeatherDisplay:10.37,2013-05-01 09:07:00,
2013-05-01 05:12:00,49.1,44.8,30.34,SE,135,0.0,0.0,85,0.00,,BKN,0.00,WeatherDisplay:10.37,2013-05-01 09:12:00,
2013-05-01 05:17:00,48.9,44.6,30.34,SE,135,0.0,0.0,85,0.00,,BKN,0.00,WeatherDisplay:10.37,2013-05-01 09:17:00,
2013-05-01 05:22:00,48.7,44.4,30.35,SE,135,0.0,0.0,85,0.00,,BKN,0.00,WeatherDisplay:10.37,2013-05-01 09:22:00,
2013-05-01 05:27:00,48.6,44.3,30.35,SE,135,0.0,0.0,85,0.00,,BKN,0.00,WeatherDisplay:10.37,2013-05-01 09:27:00,
2013-05-01 05:32:00,48.2,43.9,30.35,SE,135,0.0,0.0,85,0.00,,BKN,0.00,WeatherDisplay:10.37,2013-05-01 09:32:00,
2013-05-01 05:37:00,48.0,44.0,30.35,SE,135,0.0,0.0,86,0.00,,BKN,0.00,WeatherDisplay:10.37,2013-05-01 09:37:00,
2013-05-01 05:42:00,47.8,43.8,30.35,SE,135,0.0,0.0,86,0.00,,BKN,0.00,WeatherDisplay:10.37,2013-05-01 09:42:00,
2013-05-01 05:47:00,47.7,44.0,30.35,SE,135,1.4,2.3,87,0.00,,BKN,0.00,WeatherDisplay:10.37,2013-05-01 09:47:00,
2013-05-01 05:52:00,47.7,43.7,30.35,SE,135,1.7,1.7,86,0.00,,BKN,0.00,WeatherDisplay:10.37,2013-05-01 09:52:00,
2013-05-01 05:57:00,48.0,43.1,30.35,SE,135,2.1,2.3,83,0.00,,BKN,0.00,WeatherDisplay:10.37,2013-05-01 09:57:00,
2013-05-01 06:02:00,48.4,43.8,30.36,SE,135,2.3,2.3,84,0.00,,BKN,0.00,WeatherDisplay:10.37,2013-05-01 10:02:00,
2013-05-01 06:07:00,48.6,43.7,30.36,SE,135,2.2,2.3,83,0.00,,BKN,0.00,WeatherDisplay:10.37,2013-05-01 10:07:00,
2013-05-01 06:12:00,48.7,43.1,30.36,SE,135,1.4,1.7,81,0.00,,BKN,0.00,WeatherDisplay:10.37,2013-05-01 10:12:00,
2013-05-01 06:17:00,48.7,43.1,30.36,SE,135,2.2,2.3,81,0.00,,BKN,0.00,WeatherDisplay:10.37,2013-05-01 10:17:00,
2013-05-01 06:22:00,49.1,42.9,30.36,SE,135,2.3,2.3,79,0.00,,BKN,0.00,WeatherDisplay:10.37,2013-05-01 10:22:00,
2013-05-01 06:27:00,49.1,42.9,30.37,SE,135,1.7,1.7,79,0.00,,BKN,0.00,WeatherDisplay:10.37,2013-05-01 10:27:00,
2013-05-01 06:32:00,49.1,43.2,30.37,SE,135,1.1,1.1,80,0.00,,BKN,0.00,WeatherDisplay:10.37,2013-05-01 10:32:00,
2013-05-01 06:37:00,49.1,43.8,30.38,SE,135,0.0,0.0,82,0.00,,BKN,0.00,WeatherDisplay:10.37,2013-05-01 10:37:00,
2013-05-01 06:42:00,49.1,44.2,30.38,SE,135,0.0,0.0,83,0.00,,BKN,0.00,WeatherDisplay:10.37,2013-05-01 10:42:00,
2013-05-01 06:47:00,49.1,44.2,30.38,SE,135,0.0,0.0,83,0.00,,BKN,0.00,WeatherDisplay:10.37,2013-05-01 10:47:00,
2013-05-01 06:52:00,49.3,44.4,30.38,SE,135,1.7,1.7,83,0.00,,BKN,0.00,WeatherDisplay:10.37,2013-05-01 10:52:00,
2013-05-01 06:57:00,49.5,43.9,30.38,SE,135,0.3,1.1,81,0.00,,BKN,0.00,WeatherDisplay:10.37,2013-05-01 10:57:00,
2013-05-01 07:02:00,49.6,43.7,30.38,SE,135,0.0,0.0,80,0.00,,BKN,0.00,WeatherDisplay:10.37,2013-05-01 11:02:00,
2013-05-01 07:07:00,49.8,43.5,30.38,SE,135,0.0,0.0,79,0.00,,BKN,0.00,WeatherDisplay:10.37,2013-05-01 11:07:00,
2013-05-01 07:12:00,50.0,42.4,30.39,SE,135,0.0,0.0,75,0.00,,BKN,0.00,WeatherDisplay:10.37,2013-05-01 11:12:00,
2013-05-01 07:17:00,50.2,42.2,30.39,SE,135,0.0,1.1,74,0.00,,BKN,0.00,WeatherDisplay:10.37,2013-05-01 11:17:00,
2013-05-01 07:22:00,50.9,41.5,30.40,SE,135,1.6,2.2,70,0.00,,BKN,0.00,WeatherDisplay:10.37,2013-05-01 11:22:00,
2013-05-01 07:27:00,51.8,40.8,30.40,SE,135,1.8,2.2,66,0.00,,BKN,0.00,WeatherDisplay:10.37,2013-05-01 11:27:00,
2013-05-01 07:32:00,52.2,40.8,30.40,SE,135,1.3,1.3,65,0.00,,BKN,0.00,WeatherDisplay:10.37,2013-05-01 11:32:00,
2013-05-01 07:37:00,52.5,41.1,30.41,SE,135,0.8,1.1,65,0.00,,BKN,0.00,WeatherDisplay:10.37,2013-05-01 11:37:00,
2013-05-01 07:42:00,53.1,41.6,30.41,SE,135,0.0,0.0,65,0.00,,BKN,0.00,WeatherDisplay:10.37,2013-05-01 11:42:00,
2013-05-01 07:47:00,53.6,43.7,30.41,SE,135,0.0,0.0,69,0.00,,BKN,0.00,WeatherDisplay:10.37,2013-05-01 11:47:00,
2013-05-01 07:52:00,54.5,40.0,30.41,SE,135,1.9,2.3,58,0.00,,BKN,0.00,WeatherDisplay:10.37,2013-05-01 11:52:00,
2013-05-01 07:57:00,56.1,38.7,30.41,ESE,112,3.1,3.5,52,0.00,,BKN,0.00,WeatherDisplay:10.37,2013-05-01 11:57:00,
2013-05-01 08:02:00,56.7,38.3,30.41,ESE,112,3.2,3.5,50,0.00,,BKN,0.00,WeatherDisplay:10.37,2013-05-01 12:02:00,
2013-05-01 08:07:00,57.6,38.0,30.41,ESE,112,2.9,3.5,48,0.00,,BKN,0.00,WeatherDisplay:10.37,2013-05-01 12:07:00,
2013-05-01 08:12:00,58.5,37.8,30.41,ESE,112,2.8,3.2,46,0.00,,BKN,0.00,WeatherDisplay:10.37,2013-05-01 12:12:00,
2013-05-01 08:17:00,59.4,39.1,30.41,ESE,112,2.6,3.5,47,0.00,,BKN,0.00,WeatherDisplay:10.37,2013-05-01 12:17:00,
2013-05-01 08:22:00,60.6,39.1,30.41,ESE,112,0.9,2.3,45,0.00,,BKN,0.00,WeatherDisplay:10.37,2013-05-01 12:22:00,
2013-05-01 08:27:00,61.5,41.1,30.41,NNW,338,1.2,2.3,47,0.00,,BKN,0.00,WeatherDisplay:10.37,2013-05-01 12:27:00,
2013-05-01 08:32:00,62.6,39.8,30.41,SSW,202,0.0,0.0,43,0.00,,BKN,0.00,WeatherDisplay:10.37,2013-05-01 12:32:00,
2013-05-01 08:37:00,66.0,39.7,30.41,ESE,112,2.2,3.5,38,0.00,,BKN,0.00,WeatherDisplay:10.37,2013-05-01 12:37:00,
2013-05-01 08:42:00,64.4,38.2,30.41,East,90,1.9,2.7,38,0.00,,BKN,0.00,WeatherDisplay:10.37,2013-05-01 12:42:00,
2013-05-01 08:47:00,62.2,40.0,30.41,ENE,68,2.3,3.5,44,0.00,,BKN,0.00,WeatherDisplay:10.37,2013-05-01 12:47:00,
2013-05-01 08:52:00,62.2,39.4,30.41,East,90,2.2,2.3,43,0.00,,BKN,0.00,WeatherDisplay:10.37,2013-05-01 12:52:00,
2013-05-01 08:57:00,63.3,39.2,30.41,ESE,112,0.3,2.3,41,0.00,,BKN,0.00,WeatherDisplay:10.37,2013-05-01 12:57:00,
2013-05-01 09:02:00,63.3,39.2,30.41,ESE,112,2.9,3.7,41,0.00,,BKN,0.00,WeatherDisplay:10.37,2013-05-01 13:02:00,
2013-05-01 09:07:00,63.5,40.6,30.41,ESE,112,2.5,3.5,43,0.00,,BKN,0.00,WeatherDisplay:10.37,2013-05-01 13:07:00,
2013-05-01 09:12:00,68.5,39.0,30.41,ESE,112,2.5,2.5,34,0.00,,BKN,0.00,WeatherDisplay:10.37,2013-05-01 13:12:00,
2013-05-01 09:17:00,69.1,40.3,30.41,East,90,2.6,3.5,35,0.00,,BKN,0.00,WeatherDisplay:10.37,2013-05-01 13:17:00,
2013-05-01 09:22:00,69.4,38.2,30.41,ESE,112,1.9,4.6,32,0.00,,BKN,0.00,WeatherDisplay:10.37,2013-05-01 13:22:00,
2013-05-01 09:27:00,70.2,39.7,30.41,SSE,158,2.5,2.5,33,0.00,,BKN,0.00,WeatherDisplay:10.37,2013-05-01 13:27:00,
2013-05-01 09:32:00,64.0,36.5,30.41,ESE,112,2.1,2.3,36,0.00,,BKN,0.00,WeatherDisplay:10.37,2013-05-01 13:32:00,
2013-05-01 09:37:00,64.8,38.6,30.41,ESE,112,2.6,3.5,38,0.00,,BKN,0.00,WeatherDisplay:10.37,2013-05-01 13:37:00,
2013-05-01 09:42:00,65.7,38.7,30.41,NNW,338,0.9,2.2,37,0.00,,BKN,0.00,WeatherDisplay:10.37,2013-05-01 13:42:00,
2013-05-01 09:47:00,65.5,39.9,30.41,East,90,2.4,3.5,39,0.00,,BKN,0.00,WeatherDisplay:10.37,2013-05-01 13:47:00,
2013-05-01 09:52:00,66.2,38.4,30.41,ESE,112,2.9,3.5,36,0.00,,BKN,0.00,WeatherDisplay:10.37,2013-05-01 13:52:00,
2013-05-01 09:57:00,66.2,39.8,30.41,ESE,112,2.6,3.5,38,0.00,,BKN,0.00,WeatherDisplay:10.37,2013-05-01 13:57:00,
2013-05-01 10:02:00,67.1,39.2,30.41,NNW,338,1.8,1.8,36,0.00,,BKN,0.00,WeatherDisplay:10.37,2013-05-01 14:02:00,
2013-05-01 10:08:00,68.0,37.8,30.41,East,90,3.9,4.2,33,0.00,,BKN,0.00,WeatherDisplay:10.37,2013-05-01 14:08:00,
2013-05-01 10:13:00,69.1,41.0,30.40,SE,135,0.8,2.3,36,0.00,,BKN,0.00,WeatherDisplay:10.37,2013-05-01 14:13:00,
2013-05-01 10:18:00,69.6,38.4,30.40,SE,135,1.9,2.3,32,0.00,,BKN,0.00,WeatherDisplay:10.37,2013-05-01 14:18:00,
2013-05-01 10:23:00,69.1,38.0,30.40,ESE,112,3.7,5.8,32,0.00,,BKN,0.00,WeatherDisplay:10.37,2013-05-01 14:23:00,
2013-05-01 10:28:00,68.7,40.7,30.41,East,90,2.9,4.6,36,0.00,,BKN,0.00,WeatherDisplay:10.37,2013-05-01 14:28:00,
2013-05-01 10:33:00,69.1,39.5,30.41,ENE,68,3.5,4.6,34,0.00,,BKN,0.00,WeatherDisplay:10.37,2013-05-01 14:33:00,
2013-05-01 10:38:00,69.6,39.2,30.40,SE,135,2.7,4.7,33,0.00,,BKN,0.00,WeatherDisplay:10.37,2013-05-01 14:38:00,
2013-05-01 10:43:00,69.8,40.9,30.40,East,90,2.9,3.7,35,0.00,,BKN,0.00,WeatherDisplay:10.37,2013-05-01 14:43:00,
2013-05-01 10:48:00,69.6,40.0,30.40,East,90,2.4,2.7,34,0.00,,BKN,0.00,WeatherDisplay:10.37,2013-05-01 14:48:00,
2013-05-01 10:53:00,70.3,38.2,30.40,ESE,112,2.4,3.7,31,0.00,,BKN,0.00,WeatherDisplay:10.37,2013-05-01 14:53:00,
2013-05-01 10:58:00,70.2,42.7,30.40,WNW,292,1.2,2.7,37,0.00,,BKN,0.00,WeatherDisplay:10.37,2013-05-01 14:58:00,
2013-05-01 11:03:00,71.1,41.3,30.40,SW,225,1.5,2.3,34,0.00,,BKN,0.00,WeatherDisplay:10.37,2013-05-01 15:03:00,
2013-05-01 11:08:00,73.9,36.8,30.40,SSE,158,2.0,3.5,26,0.00,,BKN,0.00,WeatherDisplay:10.37,2013-05-01 15:08:00,
2013-05-01 11:13:00,74.3,35.2,30.39,ESE,112,2.7,3.7,24,0.00,,BKN,0.00,WeatherDisplay:10.37,2013-05-01 15:13:00,
2013-05-01 11:18:00,74.1,35.0,30.39,ESE,112,2.9,3.5,24,0.00,,BKN,0.00,WeatherDisplay:10.37,2013-05-01 15:18:00,
2013-05-01 11:23:00,73.8,37.7,30.38,ESE,112,2.6,3.5,27,0.00,,BKN,0.00,WeatherDisplay:10.37,2013-05-01 15:23:00,
2013-05-01 11:28:00,74.3,37.2,30.38,SE,135,3.2,5.8,26,0.00,,BKN,0.00,WeatherDisplay:10.37,2013-05-01 15:28:00,
2013-05-01 11:33:00,74.3,41.7,30.38,ESE,112,2.2,3.5,31,0.00,,BKN,0.00,WeatherDisplay:10.37,2013-05-01 15:33:00,
2013-05-01 11:38:00,75.0,35.7,30.39,ESE,112,3.1,3.5,24,0.00,,BKN,0.00,WeatherDisplay:10.37,2013-05-01 15:38:00,
2013-05-01 11:43:00,75.2,37.9,30.39,SSW,202,2.5,3.5,26,0.00,,BKN,0.00,WeatherDisplay:10.37,2013-05-01 15:43:00,
2013-05-01 11:48:00,75.2,36.9,30.38,ESE,112,3.6,4.6,25,0.00,,BKN,0.00,WeatherDisplay:10.37,2013-05-01 15:48:00,
2013-05-01 11:53:00,75.0,37.8,30.38,ENE,68,3.2,3.5,26,0.00,,BKN,0.00,WeatherDisplay:10.37,2013-05-01 15:53:00,
2013-05-01 11:58:00,75.7,37.4,30.38,SSE,158,3.0,4.6,25,0.00,,BKN,0.00,WeatherDisplay:10.37,2013-05-01 15:58:00,
2013-05-01 12:03:00,75.4,37.1,30.38,South,180,2.2,2.3,25,0.00,,BKN,0.00,WeatherDisplay:10.37,2013-05-01 16:03:00,
2013-05-01 12:08:00,76.5,37.0,30.38,SSE,158,2.0,3.5,24,0.00,,BKN,0.00,WeatherDisplay:10.37,2013-05-01 16:08:00,
2013-05-01 12:13:00,76.6,39.1,30.37,SSE,158,2.5,2.5,26,0.00,,BKN,0.00,WeatherDisplay:10.37,2013-05-01 16:13:00,
2013-05-01 12:18:00,76.1,37.7,30.37,East,90,3.7,4.6,25,0.00,,BKN,0.00,WeatherDisplay:10.37,2013-05-01 16:18:00,
2013-05-01 12:23:00,77.2,40.6,30.37,ESE,112,3.1,4.6,27,0.00,,BKN,0.00,WeatherDisplay:10.37,2013-05-01 16:23:00,
2013-05-01 12:28:00,75.4,39.1,30.37,ESE,112,3.9,4.6,27,0.00,,BKN,0.00,WeatherDisplay:10.37,2013-05-01 16:28:00,
2013-05-01 12:33:00,74.7,39.4,30.37,East,90,2.7,3.5,28,0.00,,BKN,0.00,WeatherDisplay:10.37,2013-05-01 16:33:00,
2013-05-01 12:38:00,74.5,39.2,30.37,ESE,112,3.4,3.5,28,0.00,,BKN,0.00,WeatherDisplay:10.37,2013-05-01 16:38:00,
2013-05-01 12:43:00,76.1,38.7,30.37,East,90,5.4,5.8,26,0.00,,BKN,0.00,WeatherDisplay:10.37,2013-05-01 16:43:00,
2013-05-01 12:48:00,76.5,40.0,30.36,WNW,292,2.5,4.6,27,0.00,,BKN,0.00,WeatherDisplay:10.37,2013-05-01 16:48:00,
2013-05-01 12:53:00,76.1,38.7,30.36,SE,135,4.0,4.6,26,0.00,,BKN,0.00,WeatherDisplay:10.37,2013-05-01 16:53:00,
2013-05-01 12:58:00,75.7,42.9,30.36,ESE,112,2.1,2.7,31,0.00,,BKN,0.00,WeatherDisplay:10.37,2013-05-01 16:58:00,
2013-05-01 13:03:00,76.1,41.5,30.36,ESE,112,2.7,3.5,29,0.00,,BKN,0.00,WeatherDisplay:10.37,2013-05-01 17:03:00,
2013-05-01 13:08:00,77.7,39.1,30.36,ESE,112,3.9,4.6,25,0.00,,BKN,0.00,WeatherDisplay:10.37,2013-05-01 17:08:00,
2013-05-01 13:13:00,78.8,38.9,30.35,ESE,112,3.1,3.5,24,0.00,,BKN,0.00,WeatherDisplay:10.37,2013-05-01 17:13:00,
2013-05-01 13:18:00,77.9,39.2,30.35,ESE,112,2.5,3.7,25,0.00,,BKN,0.00,WeatherDisplay:10.37,2013-05-01 17:18:00,
2013-05-01 13:23:00,77.4,37.8,30.36,ESE,112,3.6,4.7,24,0.00,,BKN,0.00,WeatherDisplay:10.37,2013-05-01 17:23:00,
2013-05-01 13:28:00,77.5,36.8,30.36,South,180,2.8,4.6,23,0.00,,BKN,0.00,WeatherDisplay:10.37,2013-05-01 17:28:00,
2013-05-01 13:33:00,78.8,38.9,30.36,WSW,248,1.9,3.5,24,0.00,,BKN,0.00,WeatherDisplay:10.37,2013-05-01 17:33:00,
2013-05-01 13:38:00,79.7,38.6,30.35,SW,225,2.1,3.5,23,0.00,,BKN,0.00,WeatherDisplay:10.37,2013-05-01 17:38:00,
2013-05-01 13:43:00,80.1,42.1,30.35,ESE,112,2.3,2.7,26,0.00,,BKN,0.00,WeatherDisplay:10.37,2013-05-01 17:43:00,
2013-05-01 13:48:00,79.9,41.9,30.34,South,180,1.2,2.3,26,0.00,,BKN,0.00,WeatherDisplay:10.37,2013-05-01 17:48:00,
2013-05-01 13:53:00,79.3,38.3,30.34,East,90,4.6,5.8,23,0.00,,BKN,0.00,WeatherDisplay:10.37,2013-05-01 17:53:00,
2013-05-01 13:58:00,79.2,40.3,30.34,South,180,2.6,3.5,25,0.00,,BKN,0.00,WeatherDisplay:10.37,2013-05-01 17:58:00,
2013-05-01 14:03:00,79.2,39.3,30.34,SE,135,3.5,5.8,24,0.00,,BKN,0.00,WeatherDisplay:10.37,2013-05-01 18:03:00,
2013-05-01 14:08:00,79.5,39.5,30.34,ESE,112,5.0,6.9,24,0.00,,BKN,0.00,WeatherDisplay:10.37,2013-05-01 18:08:00,
2013-05-01 14:13:00,80.2,41.2,30.34,SSE,158,4.8,5.8,25,0.00,,BKN,0.00,WeatherDisplay:10.37,2013-05-01 18:13:00,
2013-05-01 14:18:00,78.3,37.4,30.34,ESE,112,3.4,5.8,23,0.00,,BKN,0.00,WeatherDisplay:10.37,2013-05-01 18:18:00,
2013-05-01 14:23:00,79.5,38.4,30.34,SE,135,3.8,4.6,23,0.00,,BKN,0.00,WeatherDisplay:10.37,2013-05-01 18:23:00,
2013-05-01 14:28:00,79.5,38.4,30.34,East,90,3.7,4.2,23,0.00,,BKN,0.00,WeatherDisplay:10.37,2013-05-01 18:28:00,
2013-05-01 14:33:00,79.2,37.1,30.34,ESE,112,4.5,4.7,22,0.00,,BKN,0.00,WeatherDisplay:10.37,2013-05-01 18:33:00,
2013-05-01 14:38:00,79.0,39.1,30.34,ESE,112,2.4,3.5,24,0.00,,BKN,0.00,WeatherDisplay:10.37,2013-05-01 18:38:00,
2013-05-01 14:43:00,79.5,44.5,30.34,ESE,112,0.8,2.3,29,0.00,,BKN,0.00,WeatherDisplay:10.37,2013-05-01 18:43:00,
2013-05-01 14:48:00,80.2,39.0,30.34,ESE,112,5.9,6.9,23,0.00,,BKN,0.00,WeatherDisplay:10.37,2013-05-01 18:48:00,
2013-05-01 14:53:00,80.1,40.0,30.34,East,90,2.9,4.2,24,0.00,,BKN,0.00,WeatherDisplay:10.37,2013-05-01 18:53:00,
2013-05-01 14:58:00,79.2,41.3,30.34,SE,135,3.4,5.3,26,0.00,,BKN,0.00,WeatherDisplay:10.37,2013-05-01 18:58:00,
2013-05-01 15:03:00,80.1,37.8,30.34,East,90,5.3,5.8,22,0.00,,BKN,0.00,WeatherDisplay:10.37,2013-05-01 19:03:00,
2013-05-01 15:08:00,79.7,39.7,30.34,ESE,112,3.7,5.8,24,0.00,,BKN,0.00,WeatherDisplay:10.37,2013-05-01 19:08:00,
2013-05-01 15:13:00,79.5,39.5,30.34,SE,135,1.9,2.7,24,0.00,,BKN,0.00,WeatherDisplay:10.37,2013-05-01 19:13:00,
2013-05-01 15:18:00,81.1,39.8,30.34,SSW,202,2.7,2.7,23,0.00,,BKN,0.00,WeatherDisplay:10.37,2013-05-01 19:18:00,
2013-05-01 15:23:00,81.7,38.0,30.33,SSE,158,3.5,4.6,21,0.00,,BKN,0.00,WeatherDisplay:10.37,2013-05-01 19:23:00,
2013-05-01 15:28:00,80.1,38.9,30.33,East,90,4.1,4.6,23,0.00,,BKN,0.00,WeatherDisplay:10.37,2013-05-01 19:28:00,
2013-05-01 15:33:00,79.3,40.4,30.33,ESE,112,0.4,2.7,25,0.00,,BKN,0.00,WeatherDisplay:10.37,2013-05-01 19:33:00,
2013-05-01 15:38:00,81.3,45.1,30.33,East,90,2.6,3.5,28,0.00,,BKN,0.00,WeatherDisplay:10.37,2013-05-01 19:38:00,
2013-05-01 15:43:00,80.6,39.4,30.33,ESE,112,3.0,3.5,23,0.00,,BKN,0.00,WeatherDisplay:10.37,2013-05-01 19:43:00,
2013-05-01 15:48:00,80.6,39.4,30.32,SSE,158,2.6,5.8,23,0.00,,BKN,0.00,WeatherDisplay:10.37,2013-05-01 19:48:00,
2013-05-01 15:53:00,81.0,39.7,30.32,ESE,112,4.0,5.8,23,0.00,,BKN,0.00,WeatherDisplay:10.37,2013-05-01 19:53:00,
2013-05-01 15:58:00,80.4,39.2,30.32,SSE,158,2.8,3.5,23,0.00,,BKN,0.00,WeatherDisplay:10.37,2013-05-01 19:58:00,
2013-05-01 16:03:00,81.5,39.0,30.32,ESE,112,2.9,3.5,22,0.00,,BKN,0.00,WeatherDisplay:10.37,2013-05-01 20:03:00,
2013-05-01 16:08:00,82.4,38.5,30.32,ESE,112,2.3,3.5,21,0.00,,BKN,0.00,WeatherDisplay:10.37,2013-05-01 20:08:00,
2013-05-01 16:13:00,83.7,43.1,30.32,ESE,112,2.2,3.5,24,0.00,,BKN,0.00,WeatherDisplay:10.37,2013-05-01 20:13:00,
2013-05-01 16:18:00,85.8,42.6,30.32,East,90,5.0,6.3,22,0.00,,BKN,0.00,WeatherDisplay:10.37,2013-05-01 20:18:00,
2013-05-01 16:23:00,85.1,43.1,30.32,East,90,3.4,3.5,23,0.00,,BKN,0.00,WeatherDisplay:10.37,2013-05-01 20:23:00,
2013-05-01 16:28:00,85.8,42.6,30.32,South,180,2.8,3.5,22,0.00,,BKN,0.00,WeatherDisplay:10.37,2013-05-01 20:28:00,
2013-05-01 16:33:00,86.9,45.8,30.32,SSW,202,2.1,2.3,24,0.00,,BKN,0.00,WeatherDisplay:10.37,2013-05-01 20:33:00,
2013-05-01 16:38:00,89.6,41.9,30.32,SSW,202,2.5,3.5,19,0.00,,BKN,0.00,WeatherDisplay:10.37,2013-05-01 20:38:00,
2013-05-01 16:43:00,88.3,42.1,30.32,ESE,112,2.4,2.7,20,0.00,,BKN,0.00,WeatherDisplay:10.37,2013-05-01 20:43:00,
2013-05-01 16:48:00,86.9,43.5,30.32,SSW,202,1.3,2.3,22,0.00,,BKN,0.00,WeatherDisplay:10.37,2013-05-01 20:48:00,
2013-05-01 16:53:00,87.4,40.1,30.32,SSE,158,2.9,4.6,19,0.00,,BKN,0.00,WeatherDisplay:10.37,2013-05-01 20:53:00,
2013-05-01 16:58:00,88.2,42.1,30.32,NNE,22,1.5,2.3,20,0.00,,BKN,0.00,WeatherDisplay:10.37,2013-05-01 20:58:00,
2013-05-01 17:03:00,86.7,45.6,30.32,ESE,112,2.3,3.5,24,0.00,,BKN,0.00,WeatherDisplay:10.37,2013-05-01 21:03:00,
2013-05-01 17:08:00,85.3,42.1,30.32,ESE,112,3.5,5.8,22,0.00,,BKN,0.00,WeatherDisplay:10.37,2013-05-01 21:08:00,
2013-05-01 17:13:00,84.6,41.6,30.32,East,90,3.7,3.7,22,0.00,,BKN,0.00,WeatherDisplay:10.37,2013-05-01 21:13:00,
2013-05-01 17:18:00,84.2,42.4,30.32,South,180,2.6,3.2,23,0.00,,BKN,0.00,WeatherDisplay:10.37,2013-05-01 21:18:00,
2013-05-01 17:23:00,84.6,40.4,30.32,East,90,2.0,3.5,21,0.00,,BKN,0.00,WeatherDisplay:10.37,2013-05-01 21:23:00,
2013-05-01 17:28:00,84.9,43.0,30.32,WNW,292,0.0,2.3,23,0.00,,BKN,0.00,WeatherDisplay:10.37,2013-05-01 21:28:00,
2013-05-01 17:34:00,84.6,41.6,30.32,NNW,338,1.2,2.7,22,0.00,,BKN,0.00,WeatherDisplay:10.37,2013-05-01 21:34:00,
2013-05-01 17:38:00,84.2,44.6,30.31,SSE,158,2.0,3.5,25,0.00,,BKN,0.00,WeatherDisplay:10.37,2013-05-01 21:38:00,
2013-05-01 17:44:00,84.6,44.9,30.31,ESE,112,2.3,2.3,25,0.00,,BKN,0.00,WeatherDisplay:10.37,2013-05-01 21:44:00,
2013-05-01 17:49:00,84.0,42.2,30.32,WSW,248,2.5,3.5,23,0.00,,BKN,0.00,WeatherDisplay:10.37,2013-05-01 21:49:00,
2013-05-01 17:54:00,84.6,43.8,30.32,ESE,112,0.5,1.7,24,0.00,,BKN,0.00,WeatherDisplay:10.37,2013-05-01 21:54:00,
2013-05-01 17:59:00,84.0,45.4,30.32,SSE,158,1.2,2.3,26,0.00,,BKN,0.00,WeatherDisplay:10.37,2013-05-01 21:59:00,
2013-05-01 18:04:00,83.1,45.7,30.32,South,180,2.9,4.2,27,0.00,,BKN,0.00,WeatherDisplay:10.37,2013-05-01 22:04:00,
2013-05-01 18:09:00,82.4,43.0,30.32,ESE,112,1.8,2.3,25,0.00,,BKN,0.00,WeatherDisplay:10.37,2013-05-01 22:09:00,
2013-05-01 18:14:00,82.8,47.3,30.32,ESE,112,1.5,2.3,29,0.00,,BKN,0.00,WeatherDisplay:10.37,2013-05-01 22:14:00,
2013-05-01 18:19:00,82.0,45.7,30.32,North,360,1.6,2.3,28,0.00,,BKN,0.00,WeatherDisplay:10.37,2013-05-01 22:19:00,
2013-05-01 18:24:00,81.3,46.0,30.32,ESE,112,2.9,3.5,29,0.00,,BKN,0.00,WeatherDisplay:10.37,2013-05-01 22:24:00,
2013-05-01 18:29:00,80.1,45.0,30.32,North,360,4.0,4.6,29,0.00,,BKN,0.00,WeatherDisplay:10.37,2013-05-01 22:29:00,
2013-05-01 18:34:00,79.7,45.5,30.32,East,90,2.3,3.5,30,0.00,,BKN,0.00,WeatherDisplay:10.37,2013-05-01 22:34:00,
2013-05-01 18:39:00,79.2,45.9,30.32,ENE,68,2.9,4.6,31,0.00,,BKN,0.00,WeatherDisplay:10.37,2013-05-01 22:39:00,
2013-05-01 18:44:00,78.3,44.3,30.32,ESE,112,3.8,5.8,30,0.00,,BKN,0.00,WeatherDisplay:10.37,2013-05-01 22:44:00,
2013-05-01 18:49:00,77.7,44.6,30.32,East,90,2.5,3.5,31,0.00,,BKN,0.00,WeatherDisplay:10.37,2013-05-01 22:49:00,
2013-05-01 18:54:00,77.4,44.4,30.32,ESE,112,2.9,4.6,31,0.00,,BKN,0.00,WeatherDisplay:10.37,2013-05-01 22:54:00,
2013-05-01 18:59:00,77.0,45.7,30.32,East,90,2.4,2.7,33,0.00,,BKN,0.00,WeatherDisplay:10.37,2013-05-01 22:59:00,
2013-05-01 19:04:00,76.5,45.2,30.32,East,90,2.4,2.4,33,0.00,,BKN,0.00,WeatherDisplay:10.37,2013-05-01 23:04:00,
2013-05-01 19:09:00,76.1,44.1,30.32,East,90,2.4,3.5,32,0.00,,BKN,0.00,WeatherDisplay:10.37,2013-05-01 23:09:00,
2013-05-01 19:14:00,75.9,44.7,30.32,East,90,2.6,3.5,33,0.00,,BKN,0.00,WeatherDisplay:10.37,2013-05-01 23:14:00,
2013-05-01 19:19:00,75.4,44.3,30.32,East,90,2.4,2.7,33,0.00,,BKN,0.00,WeatherDisplay:10.37,2013-05-01 23:19:00,
2013-05-01 19:24:00,74.8,43.8,30.33,NE,45,2.9,3.5,33,0.00,,BKN,0.00,WeatherDisplay:10.37,2013-05-01 23:24:00,
2013-05-01 19:29:00,74.3,44.1,30.33,East,90,2.4,2.7,34,0.00,,BKN,0.00,WeatherDisplay:10.37,2013-05-01 23:29:00,
2013-05-01 19:34:00,73.9,43.8,30.33,East,90,2.2,3.2,34,0.00,,BKN,0.00,WeatherDisplay:10.37,2013-05-01 23:34:00,
2013-05-01 19:39:00,73.6,44.2,30.33,East,90,2.5,2.7,35,0.00,,BKN,0.00,WeatherDisplay:10.37,2013-05-01 23:39:00,
2013-05-01 19:44:00,73.2,43.9,30.33,East,90,2.5,2.5,35,0.00,,BKN,0.00,WeatherDisplay:10.37,2013-05-01 23:44:00,
2013-05-01 19:49:00,72.9,44.4,30.33,East,90,1.7,2.3,36,0.00,,BKN,0.00,WeatherDisplay:10.37,2013-05-01 23:49:00,
2013-05-01 19:54:00,72.5,44.0,30.33,East,90,2.0,2.3,36,0.00,,BKN,0.00,WeatherDisplay:10.37,2013-05-01 23:54:00,
2013-05-01 19:59:00,72.1,44.4,30.34,East,90,0.7,1.7,37,0.00,,BKN,0.00,WeatherDisplay:10.37,2013-05-01 23:59:00,
2013-05-01 20:04:00,71.6,44.6,30.34,East,90,2.8,3.5,38,0.00,,BKN,0.00,WeatherDisplay:10.37,2013-05-02 00:04:00,
2013-05-01 20:09:00,71.2,45.0,30.34,East,90,1.0,2.3,39,0.00,,BKN,0.00,WeatherDisplay:10.37,2013-05-02 00:09:00,
2013-05-01 20:14:00,70.5,46.3,30.34,East,90,0.0,0.0,42,0.00,,BKN,0.00,WeatherDisplay:10.37,2013-05-02 00:14:00,
2013-05-01 20:19:00,69.6,44.8,30.34,East,90,0.0,0.0,41,0.00,,BKN,0.00,WeatherDisplay:10.37,2013-05-02 00:19:00,
2013-05-01 20:24:00,68.7,44.0,30.34,East,90,0.0,0.0,41,0.00,,BKN,0.00,WeatherDisplay:10.37,2013-05-02 00:24:00,
2013-05-01 20:29:00,68.0,43.4,30.34,East,90,0.0,0.0,41,0.00,,BKN,0.00,WeatherDisplay:10.37,2013-05-02 00:29:00,
2013-05-01 20:34:00,67.3,44.6,30.34,East,90,0.0,0.0,44,0.00,,BKN,0.00,WeatherDisplay:10.37,2013-05-02 00:34:00,
2013-05-01 20:39:00,66.6,45.2,30.35,East,90,0.0,0.0,46,0.00,,BKN,0.00,WeatherDisplay:10.37,2013-05-02 00:39:00,
2013-05-01 20:44:00,66.4,45.5,30.35,East,90,0.0,0.0,47,0.00,,BKN,0.00,WeatherDisplay:10.37,2013-05-02 00:44:00,
2013-05-01 20:49:00,65.8,45.0,30.36,East,90,0.0,0.0,47,0.00,,BKN,0.00,WeatherDisplay:10.37,2013-05-02 00:49:00,
2013-05-01 20:54:00,65.3,45.1,30.36,East,90,0.0,0.0,48,0.00,,BKN,0.00,WeatherDisplay:10.37,2013-05-02 00:54:00,
2013-05-01 20:59:00,64.6,44.5,30.36,East,90,0.0,0.0,48,0.00,,BKN,0.00,WeatherDisplay:10.37,2013-05-02 00:59:00,
2013-05-01 21:04:00,64.2,44.6,30.36,East,90,0.0,0.0,49,0.00,,BKN,0.00,WeatherDisplay:10.37,2013-05-02 01:04:00,
2013-05-01 21:09:00,63.5,45.0,30.36,East,90,0.0,0.0,51,0.00,,BKN,0.00,WeatherDisplay:10.37,2013-05-02 01:09:00,
2013-05-01 21:14:00,63.1,45.2,30.36,East,90,0.0,0.0,52,0.00,,BKN,0.00,WeatherDisplay:10.37,2013-05-02 01:14:00,
2013-05-01 21:19:00,62.8,45.4,30.36,East,90,0.0,0.0,53,0.00,,BKN,0.00,WeatherDisplay:10.37,2013-05-02 01:19:00,
2013-05-01 21:24:00,62.2,45.3,30.37,East,90,0.0,0.0,54,0.00,,BKN,0.00,WeatherDisplay:10.37,2013-05-02 01:24:00,
2013-05-01 21:29:00,61.9,45.1,30.37,East,90,0.0,0.0,54,0.00,,BKN,0.00,WeatherDisplay:10.37,2013-05-02 01:29:00,
2013-05-01 21:34:00,61.7,45.8,30.37,East,90,0.0,0.0,56,0.00,,BKN,0.00,WeatherDisplay:10.37,2013-05-02 01:34:00,
2013-05-01 21:39:00,61.3,46.8,30.37,East,90,0.0,0.0,59,0.00,,BKN,0.00,WeatherDisplay:10.37,2013-05-02 01:39:00,
2013-05-01 21:44:00,61.0,45.7,30.37,East,90,0.0,0.0,57,0.00,,BKN,0.00,WeatherDisplay:10.37,2013-05-02 01:44:00,
2013-05-01 21:49:00,60.8,45.5,30.37,East,90,0.0,0.0,57,0.00,,BKN,0.00,WeatherDisplay:10.37,2013-05-02 01:49:00,
2013-05-01 21:54:00,60.6,47.9,30.37,East,90,0.0,0.0,63,0.00,,BKN,0.00,WeatherDisplay:10.37,2013-05-02 01:54:00,
2013-05-01 21:59:00,60.3,46.4,30.37,East,90,0.0,0.0,60,0.00,,BKN,0.00,WeatherDisplay:10.37,2013-05-02 01:59:00,
2013-05-01 22:04:00,60.1,45.7,30.37,East,90,1.5,1.7,59,0.00,,BKN,0.00,WeatherDisplay:10.37,2013-05-02 02:04:00,
2013-05-01 22:09:00,60.1,45.7,30.37,East,90,0.0,1.1,59,0.00,,BKN,0.00,WeatherDisplay:10.37,2013-05-02 02:09:00,
2013-05-01 22:14:00,60.1,45.3,30.37,East,90,0.0,0.0,58,0.00,,BKN,0.00,WeatherDisplay:10.37,2013-05-02 02:14:00,
2013-05-01 22:19:00,59.9,45.1,30.37,East,90,0.0,0.0,58,0.00,,BKN,0.00,WeatherDisplay:10.37,2013-05-02 02:19:00,
2013-05-01 22:24:00,59.7,48.3,30.37,East,90,0.0,0.0,66,0.00,,BKN,0.00,WeatherDisplay:10.37,2013-05-02 02:24:00,
2013-05-01 22:29:00,59.5,48.9,30.37,East,90,0.0,0.0,68,0.00,,BKN,0.00,WeatherDisplay:10.37,2013-05-02 02:29:00,
2013-05-01 22:34:00,59.2,47.8,30.37,East,90,0.0,0.0,66,0.00,,BKN,0.00,WeatherDisplay:10.37,2013-05-02 02:34:00,
2013-05-01 22:39:00,59.0,47.2,30.37,East,90,0.0,0.0,65,0.00,,BKN,0.00,WeatherDisplay:10.37,2013-05-02 02:39:00,
2013-05-01 22:44:00,58.6,48.1,30.37,East,90,0.0,0.0,68,0.00,,BKN,0.00,WeatherDisplay:10.37,2013-05-02 02:44:00,
2013-05-01 22:49:00,58.6,45.2,30.37,East,90,0.0,0.0,61,0.00,,BKN,0.00,WeatherDisplay:10.37,2013-05-02 02:49:00,
2013-05-01 22:54:00,59.2,43.5,30.37,East,90,0.0,0.0,56,0.00,,BKN,0.00,WeatherDisplay:10.37,2013-05-02 02:54:00,
2013-05-01 22:59:00,59.2,42.6,30.37,East,90,0.0,0.0,54,0.00,,BKN,0.00,WeatherDisplay:10.37,2013-05-02 02:59:00,
2013-05-01 23:04:00,59.4,43.2,30.37,East,90,0.0,0.0,55,0.00,,BKN,0.00,WeatherDisplay:10.37,2013-05-02 03:04:00,
2013-05-01 23:09:00,59.2,43.0,30.37,East,90,0.0,0.0,55,0.00,,BKN,0.00,WeatherDisplay:10.37,2013-05-02 03:09:00,
2013-05-01 23:14:00,59.2,43.0,30.36,East,90,0.0,0.0,55,0.00,,BKN,0.00,WeatherDisplay:10.37,2013-05-02 03:14:00,
2013-05-01 23:19:00,59.0,43.3,30.36,East,90,0.0,0.0,56,0.00,,BKN,0.00,WeatherDisplay:10.37,2013-05-02 03:19:00,
2013-05-01 23:24:00,58.8,44.5,30.37,East,90,0.0,0.0,59,0.00,,BKN,0.00,WeatherDisplay:10.37,2013-05-02 03:24:00,
2013-05-01 23:29:00,58.5,43.8,30.37,East,90,0.0,0.0,58,0.00,,BKN,0.00,WeatherDisplay:10.37,2013-05-02 03:29:00,
2013-05-01 23:34:00,58.1,45.6,30.37,East,90,0.0,0.0,63,0.00,,BKN,0.00,WeatherDisplay:10.37,2013-05-02 03:34:00,
2013-05-01 23:39:00,57.9,44.5,30.37,East,90,0.0,0.0,61,0.00,,BKN,0.00,WeatherDisplay:10.37,2013-05-02 03:39:00,
2013-05-01 23:44:00,57.6,42.9,30.37,East,90,2.0,2.3,58,0.00,,BKN,0.00,WeatherDisplay:10.37,2013-05-02 03:44:00,
2013-05-01 23:49:00,57.6,43.4,30.37,East,90,0.0,0.0,59,0.00,,BKN,0.00,WeatherDisplay:10.37,2013-05-02 03:49:00,
2013-05-01 23:54:00,57.6,43.4,30.37,East,90,0.0,0.0,59,0.00,,BKN,0.00,WeatherDisplay:10.37,2013-05-02 03:54:00,
2013-05-01 23:59:00,57.4,44.1,30.37,East,90,0.0,1.7,61,0.00,,BKN,0.00,WeatherDisplay:10.37,2013-05-02 03:59:00,